KA0WUC-13 Weather Reports


time (UTC)temp
C
wind
direction
speed
KPH
gust
KPH
rain 1hr
cm
rain 24hr
cm
rain mn
cm
humidity
%
barometer
mb
20260510203015 17 111 3.2 11.3 0.00 0.05 0.05 53 1024.0
20260510202016 17 49 4.8 9.7 0.00 0.05 0.05 54 1024.0
20260510201015 16 91 3.2 11.3 0.00 0.05 0.05 57 1024.0
20260510200015 16 106 4.8 12.9 0.00 0.05 0.05 57 1024.0
20260510195015 16 89 8.0 17.7 0.00 0.05 0.05 58 1024.1
20260510194015 15 127 4.8 12.9 0.00 0.05 0.05 60 1024.0
20260510193035 16 39 6.4 14.5 0.00 0.05 0.05 60 1024.2
20260510192015 15 87 8.0 16.1 0.00 0.05 0.05 61 1024.0
20260510191015 15 68 6.4 16.1 0.00 0.05 0.05 64 1023.9
20260510190035 15 58 8.0 14.5 0.00 0.05 0.05 66 1024.1
20260510185015 15 67 8.0 14.5 0.00 0.05 0.05 66 1024.1
20260510184015 14 46 4.8 14.5 0.00 0.05 0.05 65 1024.0
20260510183035 14 88 6.4 16.1 0.00 0.05 0.05 64 1024.0
20260510182015 15 44 6.4 16.1 0.00 0.05 0.05 65 1024.0
20260510181016 13 77 6.4 16.1 0.00 0.05 0.05 66 1023.8
20260510180015 13 30 8.0 14.5 0.00 0.05 0.05 67 1024.0
20260510175015 13 95 6.4 14.5 0.00 0.05 0.05 74 1024.2
20260510174036 12 82 6.4 12.9 0.00 0.05 0.05 78 1024.3
20260510173155 12 103 8.0 14.5 0.00 0.05 0.05 79 1024.3
20260510172015 12 76 6.4 16.1 0.00 0.05 0.05 80 1024.3
20260510171035 12 48 4.8 12.9 0.00 0.05 0.05 80 1024.3
20260510170015 12 77 6.4 14.5 0.00 0.05 0.05 80 1024.5
20260510165015 12 55 4.8 14.5 0.00 0.05 0.05 79 1024.5
20260510164035 11 60 4.8 16.1 0.00 0.05 0.05 80 1024.4
20260510163015 11 61 4.8 14.5 0.00 0.05 0.05 82 1024.3
20260510162015 11 50 6.4 14.5 0.00 0.05 0.05 82 1024.3
20260510161015 11 67 6.4 14.5 0.00 0.05 0.05 82 1024.2
20260510160015 11 53 8.0 14.5 0.00 0.05 0.05 82 1024.0
20260510155015 11 53 6.4 16.1 0.00 0.05 0.05 83 1024.1
20260510154017 11 49 6.4 14.5 0.00 0.05 0.05 82 1024.0
20260510153015 11 75 3.2 9.7 0.00 0.05 0.05 81 1023.8
20260510152015 11 52 1.6 11.3 0.00 0.05 0.05 81 1023.9
20260510151015 11 72 4.8 11.3 0.00 0.05 0.05 81 1023.8
20260510150014 11 64 6.4 14.5 0.00 0.05 0.05 82 1023.9
20260510145015 11 98 4.8 14.5 0.00 0.05 0.05 83 1023.8
20260510144036 11 67 6.4 12.9 0.00 0.05 0.05 83 1023.9
20260510143036 11 92 3.2 12.9 0.00 0.05 0.05 83 1023.9
20260510142017 11 88 4.8 11.3 0.00 0.05 0.05 83 1024.1
20260510141015 11 82 4.8 12.9 0.00 0.05 0.05 84 1024.1
20260510140016 11 65 4.8 9.7 0.00 0.05 0.05 85 1024.2
20260510135017 11 74 0.0 6.4 0.00 0.05 0.05 86 1024.0
20260510134015 11 24 1.6 6.4 0.00 0.05 0.05 86 1023.6
20260510133017 11 8 1.6 4.8 0.00 0.05 0.05 87 1023.7
20260510132034 11 0.0 0.0 0.00 0.05 0.05 87 1023.6
20260510131017 11 0.0 3.2 0.00 0.05 0.05 88 1023.7
20260510130056 10 352 1.6 6.4 0.00 0.05 0.05 88 1023.7
20260510125017 10 0.0 0.0 0.00 0.05 0.05 88 1023.7
20260510124016 10 339 0.0 4.8 0.00 0.05 0.05 88 1023.6
20260510123016 10 337 3.2 8.0 0.00 0.05 0.05 88 1023.7
20260510122016 10 338 3.2 8.0 0.00 0.05 0.05 88 1023.5
20260510121016 10 0.0 0.0 0.00 0.05 0.05 89 1023.2
20260510120016 10 0.0 0.0 0.00 0.05 0.05 88 1023.2
20260510115016 10 0.0 0.0 0.00 0.05 0.05 88 1023.0
20260510114016 10 0.0 1.6 0.00 0.05 0.05 88 1022.8
20260510113016 10 92 1.6 4.8 0.00 0.05 0.05 88 1022.7
20260510112016 10 91 1.6 8.0 0.00 0.05 0.05 87 1022.6
20260510111016 10 48 3.2 9.7 0.00 0.05 0.05 87 1022.5
20260510110016 10 25 3.2 11.3 0.00 0.05 0.05 87 1022.7
20260510105016 10 35 4.8 12.9 0.03 0.05 0.05 87 1023.0
20260510104016 10 346 4.8 14.5 0.05 0.05 0.05 87 1022.8
20260510103037 10 6 4.8 12.9 0.05 0.05 0.05 87 1022.7
20260510102036 10 12 3.2 9.7 0.05 0.05 0.05 86 1022.5
20260510101016 11 357 6.4 19.3 0.05 0.05 0.05 85 1022.8
20260510100016 11 2 6.4 16.1 0.05 0.05 0.05 83 1022.6
20260510095016 11 350 8.0 17.7 0.03 0.03 0.03 80 1022.6
20260510094037 11 340 4.8 12.9 0.00 0.00 0.00 77 1022.5
20260510093016 11 351 4.8 12.9 0.00 0.00 0.00 76 1022.1
20260510092016 11 62 4.8 12.9 0.00 0.00 0.00 75 1021.2
20260510091016 12 79 3.2 14.5 0.00 0.00 0.00 73 1020.8
20260510090036 12 65 6.4 17.7 0.00 0.00 0.00 73 1020.6
20260510085037 12 62 6.4 14.5 0.00 0.00 0.00 73 1020.5
20260510084015 12 67 4.8 17.7 0.00 0.00 0.00 73 1020.3
20260510083016 12 75 9.7 20.9 0.00 0.00 0.00 73 1020.5
20260510082016 12 53 8.0 24.1 0.00 0.00 0.00 72 1020.6
20260510081016 12 63 14.5 25.7 0.00 0.00 0.00 71 1020.2
20260510080016 12 62 8.0 25.7 0.00 0.00 0.00 71 1019.8
20260510075016 12 71 12.9 32.2 0.00 0.00 0.00 69 1019.8
20260510074016 12 72 11.3 25.7 0.00 0.00 0.00 69 1019.7
20260510073016 12 57 14.5 29.0 0.00 0.00 0.00 69 1020.0
20260510072036 12 52 12.9 27.4 0.00 0.00 0.00 69 1019.8
20260510071015 12 49 16.1 40.2 0.00 0.00 0.00 69 1019.9
20260510070016 12 55 14.5 35.4 0.00 0.00 0.00 69 1020.0
20260510065016 12 50 17.7 33.8 0.00 0.00 0.00 68 1019.9
20260510064016 12 52 17.7 38.6 0.00 0.00 0.00 67 1020.0
20260510063015 13 39 16.1 33.8 0.00 0.00 0.00 66 1020.0
20260510062015 13 40 19.3 38.6 0.00 0.00 0.00 65 1019.9
20260510061016 13 31 16.1 37.0 0.00 0.00 0.00 63 1019.4
20260510060036 13 24 16.1 38.6 0.00 0.00 0.00 62 1019.4
20260510055016 13 19 16.1 43.5 0.00 0.00 0.00 60 1019.0
20260510054015 14 35 19.3 43.5 0.00 0.00 0.00 57 1018.5
20260510053016 16 30 17.7 48.3 0.00 0.00 0.00 51 1018.4
20260510052016 16 41 19.3 37.0 0.00 0.00 0.00 53 1017.7
20260510051016 16 15 12.9 27.4 0.00 0.00 0.00 54 1017.6
20260510050014 16 51 14.5 29.0 0.00 0.00 0.00 54 1017.0
20260510045037 16 26 12.9 27.4 0.00 0.00 0.00 53 1016.6
20260510044016 16 360 11.3 22.5 0.00 0.00 0.00 53 1016.7
20260510043016 17 360 12.9 19.3 0.00 0.00 0.00 52 1016.8
20260510042016 17 360 11.3 22.5 0.00 0.00 0.00 51 1016.1
20260510041016 17 360 8.0 24.1 0.00 0.00 0.00 51 1015.1
20260510040016 18 360 9.7 20.9 0.00 0.00 0.00 50 1014.7
20260510035016 18 49 6.4 19.3 0.00 0.00 0.00 49 1014.4
20260510034016 18 82 8.0 30.6 0.00 0.00 0.00 48 1014.6
20260510033016 19 49 11.3 20.9 0.00 0.00 0.00 47 1014.5
20260510032036 19 62 12.9 24.1 0.00 0.00 0.00 46 1014.2
20260510031016 20 67 11.3 20.9 0.00 0.00 0.00 45 1014.1
20260510030016 20 85 6.4 32.2 0.00 0.00 0.00 44 1013.9
20260510025016 21 90 12.9 29.0 0.00 0.00 0.00 42 1013.5
20260510024016 22 78 14.5 32.2 0.00 0.00 0.00 37 1013.6
20260510023016 22 67 12.9 30.6 0.00 0.00 0.00 33 1013.1
20260510022016 23 360 6.4 14.5 0.00 0.00 0.00 30 1012.8
20260510021016 23 33 4.8 16.1 0.00 0.00 0.00 30 1012.6
20260510020015 23 33 4.8 12.9 0.00 0.00 0.00 30 1012.5
20260510015015 23 11 6.4 16.1 0.00 0.00 0.00 30 1012.3
20260510014015 23 30 6.4 17.7 0.00 0.00 0.00 30 1012.0
20260510013015 24 26 8.0 19.3 0.00 0.00 0.00 29 1011.7
20260510012057 24 32 4.8 17.7 0.00 0.00 0.00 29 1011.4
20260510011015 25 27 9.7 24.1 0.00 0.00 0.00 28 1011.3
20260510010015 25 18 8.0 22.5 0.00 0.00 0.00 28 1011.1
20260510005015 26 19 8.0 19.3 0.00 0.00 0.00 27 1011.0
20260510004014 26 31 8.0 22.5 0.00 0.00 0.00 26 1010.5
20260510003014 26 25 8.0 19.3 0.00 0.00 0.00 25 1010.1
20260510002017 26 45 9.7 25.7 0.00 0.00 0.00 25 1009.7
20260510001016 26 24 9.7 27.4 0.00 0.00 0.00 25 1009.9
20260510000016 27 28 9.7 24.1 0.00 0.00 0.00 24 1009.7
20260509235017 27 3 4.8 17.7 0.00 0.00 0.00 23 1009.7
20260509234017 27 13 6.4 22.5 0.00 0.00 0.00 22 1009.4
20260509233015 27 35 9.7 27.4 0.00 0.00 0.00 21 1009.6
20260509232035 28 33 8.0 25.7 0.00 0.00 0.00 22 1009.7
20260509231016 28 47 11.3 17.7 0.00 0.00 0.00 20 1009.6
20260509230016 28 5 8.0 16.1 0.00 0.00 0.00 19 1009.6
20260509225037 28 21 6.4 20.9 0.00 0.00 0.00 19 1009.6
20260509224057 29 358 8.0 19.3 0.00 0.00 0.00 18 1009.6
20260509223016 28 334 8.0 20.9 0.00 0.00 0.00 18 1009.7
20260509222016 28 29 11.3 27.4 0.00 0.00 0.00 18 1009.7
20260509221016 28 358 6.4 22.5 0.00 0.00 0.00 18 1009.9
20260509220016 29 17 8.0 25.7 0.00 0.00 0.00 18 1010.1
20260509215016 29 336 9.7 22.5 0.00 0.00 0.00 17 1010.0
20260509214016 29 354 11.3 27.4 0.00 0.00 0.00 17 1010.2
20260509213016 29 342 8.0 20.9 0.00 0.00 0.00 17 1010.3
20260509212016 29 334 11.3 22.5 0.00 0.00 0.00 16 1010.3
20260509211016 29 347 9.7 22.5 0.00 0.00 0.00 17 1010.2
20260509210016 29 330 11.3 19.3 0.00 0.00 0.00 17 1010.3
20260509205016 29 345 9.7 22.5 0.00 0.00 0.00 17 1010.3
20260509204016 29 341 8.0 22.5 0.00 0.00 0.00 18 1010.5